Airfield :
LOGIN :

Register | Disclaimer

   EN    FR    IT 

 










Legend :    VFR   Marginal VFR   IFR   Intensive IFR   Very Intensive IFR
Visi :
Ceiling :
>= 8 km
>= 3000ft
5 to 8 km
1000 to 3000 ft
1500m to 5 km
500 to 1000 ft
800 to 1500m
200 to 500 ft
< 800m
< 200 ft
Symbols :   Thunderstorms  Fog  Heavy snow  Heavy precipitations  Wind > 20 kt
SIGMETs :     Misc.  Thunderstorms  Icing  Turbulence  Mountain Waves  Volcanic Ashes







- Airport Elevation : 308 ft
- IATA code : POZ


EPPO - Poznan-Lawica

CURRENT METAR :
  • 171800Z 00000KT 9999 MIFG NSC 13/12 Q1019

EXPIRED METARs :
  • 171730Z 25001KT CAVOK 13/12 Q1019
  • 171700Z 24002KT CAVOK 14/13 Q1019
  • 171630Z 24003KT CAVOK 16/13 Q1019
  • 171600Z 23003KT CAVOK 19/14 Q1019
  • 171530Z 20005KT CAVOK 20/14 Q1019

TAF TAF EPPO
Valid from the 17 at 18:00 until the 18 at 18:00 UTC


171730Z 1718/1818 VRB02KT CAVOK
BECMG 1721/1724 1400 BR
TEMPO 1800/1807 0500 FG BKN002
BECMG 1807/1809 CAVOK
No reported NOTAMs for that airfield.



MET'MAP, your aeronautical weather chart ! - Copyright ORBIFLY December 2007 - Disclaimer

ORBIFLY MET'MAP TEAM :

Programming & Development : Alexandra Zaïnal
Concept & Development : Baudouin d'Aumeries
Co-Development & Prog : Marc-Olivier Méhu
Technical & hardware support : Manuel Goepfert

Contact : metmap@orbifly.com




SOURCES & CREDITS :

   NOAA